Regional Weather Roundup
Issued by NWS

Home | Current Version | Previous Version | Text Only | Print | Product List | Glossary On
Versions: 1 2 3 4 5 6 7 8 9 10 11 12 13 14 15 16 17 18 19 20 21 22 23 24 25 26 27 28 29 30 31 32 33 34 35 36 37 38 39 40 41 42 43 44 45 46 47 48 49 50
000
ASUS43 KMKX 271411
RWRWI

WISCONSIN REGIONAL WEATHER ROUNDUP
NATIONAL WEATHER SERVICE MILWAUKEE/SULLIVAN WI
900 AM CDT FRI MAY 27 2016

NOTE: "FAIR" INDICATES FEW OR NO CLOUDS BELOW 12,000 FEET WITH NO
SIGNIFICANT WEATHER AND/OR OBSTRUCTIONS TO VISIBILITY.

WIZ001-002-006>008-014>016-023>028-271500-
NORTHWEST WISCONSIN

CITY           SKY/WX    TMP DP  RH WIND       PRES   REMARKS
SUPERIOR ARPT  CLOUDY    47  47 100 NE6       29.88F
ASHLAND        CLOUDY    52  52 100 N3        29.90R
HAYWARD        CLOUDY    60  55  83 S5        29.89R
SIREN          DRIZZLE   63  58  86 SE6       29.86R
CUMBERLAND     DRIZZLE   59  55  88 S3        29.89R
RICE LAKE      CLOUDY    62  58  87 CALM      29.90R
CHETEK         CLOUDY    62  59  87 CALM      29.88S
LADYSMITH      CLOUDY    61  58  90 CALM      29.92R
EAU CLAIRE     CLOUDY    63  59  87 CALM      29.86F
MENOMONIE      RAIN      63  62  95 CALM      29.87F
NEW RICHMOND   DRIZZLE   62  59  90 E8        29.86S
OSCEOLA        CLOUDY    64  63  96 SE15      29.87R
$$

WIZ003>005-009-010-017-018-271500-
NORTH CENTRAL WISCONSIN

CITY           SKY/WX    TMP DP  RH WIND       PRES   REMARKS
MANITOWISH WTR NOT AVBL
ARBOR VITAE    CLOUDY    72  59  62 SE5       29.91R
WOODRUFF       CLOUDY    72  59  62 SE5       29.91R
RHINELANDER    CLOUDY    68  56  65 SE5       29.92R
EAGLE RIVER      N/A     70  55  59 SE5       29.91R
LAND O LAKES   SUNNY     68  57  68 CALM      29.92R
PHILLIPS       CLOUDY    60  57  91 CALM      29.89R
TOMAHAWK       CLOUDY    63  59  87 CALM      29.91R
MEDFORD        CLOUDY    62  58  87 CALM      29.90R
MERRILL        CLOUDY   N/A N/A N/A CALM      29.91R
$$

WIZ029-030-035-036-043>047-271500-
CENTRAL WISCONSIN

CITY           SKY/WX    TMP DP  RH WIND       PRES   REMARKS
WAUSAU         CLOUDY    66  59  78 CALM      29.87S
MOSINEE        CLOUDY    64  61  88 NW7       29.89S
MARSHFIELD     CLOUDY    66  58  75 NE3       29.86F
STEVENS POINT  CLOUDY    65  60  85 SW5       29.89R
WAUPACA        CLOUDY    70  64  81 CALM      29.87R
WAUTOMA        CLOUDY    66  62  87 E3        29.86
WISC RAPIDS    CLOUDY    66  60  81 E6        29.86F
CAMP DOUGLAS   NOT AVBL
$$

WIZ011>013-019>022-031-037>040-048>050-271500-
NORTHEAST WISCONSIN

CITY           SKY/WX    TMP DP  RH WIND       PRES   REMARKS
ANTIGO         CLOUDY    69  57  66 E3        29.91R
SHAWANO        CLOUDY    69  62  78 CALM      29.88S
OCONTO         CLOUDY    68  68 100 E5        29.88R
STURGEON BAY   NOT AVBL
GREEN BAY      CLOUDY    74  62  66 CALM      29.87S
MANITOWOC      CLOUDY    58  53  84 SE8       29.90R
APPLETON       PTSUNNY   72  57  60 E7        29.85F
CLINTONVILLE   CLOUDY    68  61  77 CALM      29.87R
OSHKOSH        CLOUDY    70  60  70 NE5       29.85S
$$

WIZ032>034-041-042-053>061-271500-
SOUTHWEST WISCONSIN

CITY           SKY/WX    TMP DP  RH WIND       PRES   REMARKS
LA CROSSE      CLOUDY    67  63  87 CALM      29.82S
SPARTA         CLOUDY    64  63  95 CALM      29.84R
VIROQUA        CLOUDY    64  63  94 E9        29.84R
BOSCOBEL       CLOUDY    68  63  84 NE3       29.84S
PRAIRIE DU CHI CLOUDY    66  65  96 E5        29.82S
PLATTEVILLE    CLOUDY    68  64  88 SE12      29.85S
$$

WIZ056-057-062-063-064-067-068-271500-
SOUTH CENTRAL WISCONSIN

CITY           SKY/WX    TMP DP  RH WIND       PRES   REMARKS
REEDSBURG      MOSUNNY   65  64  96 E3        29.85S
BARABOO/DELLS  MOSUNNY   66  63  90 E8        29.86F
LONE ROCK      CLOUDY    68  63  84 SE8       29.85S
MINERAL POINT  CLOUDY    70  63  78 SE13      29.86S
MADISON        CLOUDY    68  61  78 CALM      29.85F
MIDDLETON      CLOUDY    71  63  74 CALM      29.87R
WATERTOWN      CLOUDY    69  68  94 CALM      29.85F
MONROE         CLOUDY    70  61  73 SE9       29.88R
JANESVILLE     CLOUDY    73  64  73 SW9         N/A
$$

WIZ051-052-058>065-066-070>072-271500-
SOUTHEAST WISCONSIN

CITY           SKY/WX    TMP DP  RH WIND       PRES   REMARKS
MILWAUKEE      CLOUDY    73  67  81 SW7       29.88R
WAUKESHA       SUNNY     70  66  88 SW3       29.89R FOG
MILWAUKEE/TIMM SUNNY     72  64  78 S3        29.88R HAZE
RACINE         CLOUDY    71  64  78 S9        29.90R
BURLINGTON     CLOUDY    71  67  87 SW6       29.89R
KENOSHA        CLOUDY    74  67  78 SW9       29.89R
FOND DU LAC    CLOUDY    72  63  73 CALM      29.87R
SHEBOYGAN      CLOUDY    63  55  75 SE7       29.89R
WEST BEND      CLOUDY    68  63  83 CALM      29.87S
JUNEAU         CLOUDY    68  64  89 SE5       29.87F
$$

LSZ147-162-271500-
LAKE SUPERIOR

STATION/POSITION TIME  TEMP    WIND        PRES    WAVE
                       AIR SEA DIR/SP/G            HT/PER
                 (UTC) (F)     (DEG/KT/KT) (MB)    (FT/S)
W MID LAKE BUOY  1350   39 38   10/  6/  6 1013.3R   1
DEVILS ISLAND    1400   44      30/  7/  8 1013.1R
SAXON HARBOR     1300   50     300/  2/  2 1011.2F
$$

LMZ867-665-643>646-271500-
LAKE MICHIGAN

STATION/POSITION TIME  TEMP    WIND        PRES    WAVE
                       AIR SEA DIR/SP/G            HT/PER
                 (UTC) (F)     (DEG/KT/KT) (MB)    (FT/S)
CHAMBERS ISLAND  1300   61      30/  3/  5 1012.2
N MID LAKE BUOY  1350   47 46   30/  6/  6 1012.1F   1
NORTHPORT PIER   1300   53     100/  4/  6 1012.9
SISTER BAY       1305             CALM       N/A
ALGOMA LAKESHORE 1332             CALM       N/A
KEWAUNEE LAKESHO 1300   53      40/  3/  4 1011.6S
SHEBOYGAN LAKESH 1400   52      CALM  /  1 1012.4R
PORT WASHINGTON  1300   58      CALM  /  2 1012.5R
S MID LAKE BUOY  1350   54 50  150/ 10/ 10 1012.2R   1
KENOSHA   LAKESH 1400   59     180/ 11/ 16 1012.2
$$

TC  - TEMPERATURE IN CELSIUS
VSB - VISIBILITY IN STATUTE MILES
WCI - WIND CHILL INDEX
HX  - HEAT INDEX





USA.gov is the U.S. government's official web portal to all federal, state and local government web resources and services.